Погода в Сололе

Гватемала     14°46′24″N   91°10′57″W
темп.,
°C
ветер,
м/с
пор.,
м/с
влажн.,
%
обл.,
%
осадки,
мм/ч
давл.,
гПа
погр.,
м
24 января, пн
пн2400:00+10ссв349225 0.0 1018124
03:00+10с339010 0.0 101779
06:00+9с33870 0.0 101844
09:00+17ююв11564 0.0 1017702
12:00+20ю334741 0.0 10151741
15:00+16ююз237696 0.4 1014817
18:00+13ю119986 1.8 101681
21:00+13с119635 0.3 101744
25 января, вт
вт2500:00+11сз11961 0.3 101820
03:00+10сз11960 0.0 101723
06:00+9ссз21910 0.0 101822
09:00+16ююз12630 0.0 1018608
12:00+21ююз33435 0.0 10151734
15:00+19ю336341 0.3 10131086
18:00+13ю119428 0.4 101627
21:00+12ссв22870 0.0 101830
26 января, ср
ср2600:00+11ссв33840 0.0 101841
03:00+11ссв33900 0.0 101750
06:00+10ссв33900 0.0 101854
09:00+17в12570 0.0 1018674
12:00+20ююв235589 0.1 10161604
15:00+17ю127567 0.7 1015638
18:00+13в119417 1.3 101614
21:00+11ссв33920 0.1 101954
27 января, чт
чт2700:00+11с33901 0.1 102056
03:00+10с33863 0.0 101953
06:00+9с33833 0.0 102046
09:00+17св12525 0.0 1019526
12:00+21ююв24340 0.0 10161991
15:00+20ю335256 0.1 10141649
18:00+13юв119638 0.7 101716
21:00+11ссв33881 0.1 102046
28 января, пт
пт2800:00+11с22901 0.1 102041
03:00+10с22880 0.0 101828
06:00+10с22850 0.0 101930
09:00+17ююз11610 0.0 1019688
12:00+21ю334323 0.0 10162022
15:00+16ююз338678 2.4 1015321
18:00+14ююв119897 4.4 101766
21:00+13ссв229099 0.6 101948